Weather observations for the past three days for
Greater Binghamton Airport
Imperial (Metric)
Date Time (edt) Wind (mph) Vis. (mi.) Weather Sky Cond. Temperature (ºF) Relative Humidity Wind Chill (°F) Heat Index (°F) Pressure Precipitation (in)
Air Dwpt 6 hour altimeter (in) sea level (mb) 1 hr 3 hr 6 hr
Max. Min.
23 01:53 SE 8 10.00 Mostly Cloudy BKN100 69.1 68 78.1 68 96% 29.88 0.0
23 00:53 SE 5 10.00 Partly Cloudy SCT090 69.1 66.9 93% 29.9 0.0
22 23:53 SE 8 9.00 Fair CLR 68 66.9 96% 29.92 0.0
22 22:53 NE 7 8.00 Fair CLR 69.1 68 96% 29.94 0.0
22 21:53 SE 3 8.00 Fair CLR 71.1 70 96% 29.95 0.0
22 20:53 SE 5 9.00 Thunderstorm Light Rain FEW070 FEW095 BKN120 72 70 94% 29.95 0.0
22 19:53 Vrbl 5 10.00 Thunderstorm in Vicinity Light Rain FEW046 BKN090 OVC110 78.1 70 88 77 76% 80 29.96 0.0 0.02 0.02
22 18:53 NE 3 10.00 Mostly Cloudy SCT050 BKN120 82.9 68 61% 86 29.95 0.0
22 17:53 Calm 10.00 Fair CLR 87.1 66.9 51% 90 29.94 0.0
22 15:53 NW 7 10.00 Fair CLR 88 66.9 50% 91 29.98 0.0
22 14:53 W 7 10.00 Mostly Cloudy BKN050 BKN100 86 66 51% 88 30 0.0
22 00:53 SW 3 10.00 Fair CLR 69.1 64.9 87% 30.14 1019.3
21 23:53 Calm 10.00 Fair CLR 68 66 93% 30.15 1019.5
21 22:53 SW 6 10.00 Fair CLR 70 64.9 84% 30.15 1019.7
21 21:53 W 5 10.00 Fair CLR 73 64.9 76% 30.15 1019.7
21 20:53 SW 3 10.00 Fair CLR 72 66 82% 30.14 1019.4
21 19:53 Calm 10.00 A Few Clouds FEW120 73.9 66.9 87.1 70 79% 30.14 1019.7
21 18:53 SW 12 G 30 10.00 Thunderstorm in Vicinity Light Rain FEW022 SCT038 BKN055 71.1 66 84% 30.16 1020.4
21 17:53 N 5 10.00 Mostly Cloudy BKN080 BKN090 82 71.1 69% 86 30.14 1019.3
21 16:53 NW 6 10.00 Fair CLR 82 68 63% 85 30.15 1019.9
21 15:53 N 10 10.00 Thunderstorm in Vicinity Light Rain FEW050 SCT085 OVC110 73.9 66 76% 30.15 1019.9
21 14:53 NW 7 10.00 Thunderstorm in Vicinity FEW048 SCT080 BKN090 84.9 69.1 59% 89 30.16 1019.9
21 13:53 Calm 10.00 A Few Clouds FEW039 88 69.1 88 72 54% 92 30.17 1020.2
21 12:53 W 14 10.00 Mostly Cloudy BKN036 BKN044 84.9 69.1 59% 89 30.2 1021.1
21 11:53 SW 10 10.00 Mostly Cloudy FEW032 SCT090 BKN110 84.9 70 61% 89 30.22 1021.8
21 10:53 NW 8 10.00 Fair CLR 82.9 70 65% 87 30.24 1022.4
21 09:53 SW 7 10.00 Fair CLR 81 71.1 72% 85 30.24 1022.5
21 08:53 SW 6 10.00 Fair CLR 77 71.1 82% 79 30.25 1023.0
21 07:53 W 6 4.00 Fog/Mist CLR 72 70 75 66.9 94% 30.26 1023.5
21 06:53 S 3 5.00 Fog/Mist CLR 71.1 70 96% 30.25 1023.1
21 05:53 E 3 6.00 Fog/Mist FEW002 69.1 69.1 100% 30.25 1023.2
21 04:53 Calm 0.25 Fog VV001 68 68 100% 30.25 1023.2
21 03:53 E 3 7.00 Fair CLR 70 69.1 97% 30.25 1023.1
21 02:53 NE 5 10.00 A Few Clouds FEW065 72 68 87% 30.26 1023.4
21 01:53 Calm 10.00 Fair CLR 73 70 80.1 72 90% 30.27 1023.7
21 00:53 Calm 10.00 Fair CLR 75 70 84% 75 30.28 1023.9
20 23:53 NE 3 10.00 Fair CLR 73 70 90% 30.29 1024.5
20 22:53 Calm 10.00 Fair CLR 75 71.1 88% 75 30.29 1024.4
20 21:53 Calm 10.00 Fair CLR 75.9 71.1 85% 76 30.29 1024.3
20 20:53 Calm 10.00 Fair CLR 78.1 71.1 79% 80 30.27 1023.9
20 19:53 N 5 10.00 Fair CLR 79 70 87.1 75.9 74% 82 30.27 1023.8
20 18:53 N 7 10.00 Fair CLR 80.1 70 71% 83 30.27 1023.9
20 17:53 E 3 10.00 A Few Clouds FEW050 79 69.1 72% 82 30.28 1024.3
20 16:53 N 10 10.00 Mostly Cloudy FEW065 BKN085 78.1 70 76% 80 30.29 1024.6
20 15:53 W 9 10.00 Fair CLR 86 70 59% 91 30.3 1024.5
20 13:53 SW 8 10.00 A Few Clouds FEW034 86 70 87.1 73.9 59% 91 30.33 1025.6
20 12:53 E 3 10.00 A Few Clouds FEW031 82.9 70 65% 87 30.34 1026.0
20 11:53 SW 5 10.00 Partly Cloudy SCT023 82 71.1 69% 86 30.36 1026.6
20 10:53 E 6 10.00 Partly Cloudy SCT023 81 71.1 72% 85 30.36 1026.6
20 09:53 Calm 10.00 Fair CLR 79 69.1 72% 82 30.36 1026.6
20 08:53 W 5 10.00 Partly Cloudy FEW048 SCT060 77 68 74% 79 30.36 1026.7
20 07:53 SW 5 10.00 Fair CLR 73.9 66.9 73.9 71.1 79% 30.35 1026.5
20 06:53 SW 5 10.00 Fair CLR 72 66 82% 30.35 1026.3
20 05:53 SW 7 10.00 Fair CLR 71.1 66 84% 30.34 1026.0
20 04:53 SW 5 10.00 Fair CLR 73 64.9 76% 30.33 1025.5
20 03:53 SW 7 10.00 Fair CLR 73 64.9 76% 30.33 1025.8
20 02:53 SW 6 10.00 Fair CLR 73.9 64.9 74% 30.33 1025.6
Date Time (edt) Wind (mph) Vis. (mi.) Weather Sky Cond. Air Dwpt Max. Min. Relative Humidity Wind Chill (°F) Heat Index (°F) altimeter (in) sea level (mb) 1 hr 3 hr 6 hr
6 hour
Temperature (ºF) Pressure Precipitation (in)